User: anonymous   Login
Location: Oshawa
(43.9000°N, 78.8670°W)
Time: 20:38:42
(UTC-05:00)
Language:

Iridium 46 - Orbit

View from above orbital plane
View from above orbital plane
View from above satellite
View from above satellite

Ground track
Ground track

The orbit data is extracted from the following two-line orbital elements,

1 24905U 97043C   17050.66338357  .00000153  00000-0  47395-4 0  9998
2 24905  86.2828 304.6066 0001907  87.8547 272.2867 14.34222263 20989
Epoch (UTC): 19 February 2017 15:55:16
Eccentricity: 0.0001907
inclination: 86.2828°
perigee height: 776 km
apogee height: 779 km
right ascension of ascending node: 304.6066°
argument of perigee: 87.8547°
revolutions per day: 14.34222263
mean anomaly at epoch: 272.2867°
orbit number at epoch: 2098

The dashed part of the orbit path shows where the satellite is in the earth's shadow,  

DLR